Theta_e
323 323 323 322 320 318 318 318 316 315 313 312 312 313 312 312 310 309 309 309 308 309 309 311 311 312 314 316 319 319 320 321 321 326 329 330 330 330 329 330 331 331 332 331 331 332 334 333 334 340 342 342 342 341
322 323 323 322 321 319 319 318 315 315 315 314 313 313 312 312 311 308 309 309 308 308 309 309 310 311 312 313 316 317 319 319 320 324 327 330 331 331 332 329 331 333 331 331 331 332 335 333 339 338 337 340 343 345
322 322 322 321 320 318 317 317 315 315 315 314 313 313 311 311 311 309 309 308 308 308 308 311 313 313 312 311 312 314 316 318 318 318 321 324 329 333 333 332 331 332 332 330 334 330 332 332 332 333 335 337 341 347
321 322 321 321 319 317 317 316 316 316 315 314 313 313 311 311 311 310 309 308 308 307 308 314 313 315 314 314 313 312 315 316 316 317 319 324 327 329 334 332 334 333 335 334 334 335 332 330 329 335 336 339 345 348
320 320 321 320 319 318 316 316 315 315 314 313 314 313 311 311 310 309 309 308 307 307 310 311 311 316 317 315 315 314 314 315 317 319 320 323 324 328 330 330 332 332 333 333 330 332 334 333 338 340 340 343 347 350
319 319 319 319 318 317 316 315 315 314 313 312 312 313 312 311 310 307 308 311 312 308 307 311 316 316 318 320 318 316 315 316 316 317 320 320 320 322 330 332 332 330 329 329 331 333 334 337 341 342 344 348 350 350
319 319 319 318 317 316 316 315 314 312 311 311 312 313 311 311 309 307 311 312 311 308 307 311 316 319 318 317 318 318 317 317 317 318 318 320 322 322 328 331 331 329 329 330 330 330 339 341 341 346 349 347 344 344
319 318 318 317 316 316 315 315 314 312 311 311 313 311 311 309 309 308 310 309 310 309 308 314 317 320 320 323 321 319 319 318 318 319 319 320 322 322 327 329 328 329 330 332 333 334 339 340 341 342 342 342 343 344
317 317 317 316 315 314 314 314 313 311 311 312 312 310 309 311 310 311 311 310 309 309 311 315 319 323 321 320 321 319 320 323 321 322 321 321 323 326 326 328 327 328 332 336 336 336 339 342 342 342 341 341 342 343
316 316 316 315 314 312 310 310 310 310 311 311 310 309 312 313 312 309 309 310 308 308 309 313 315 320 319 321 321 323 321 325 325 323 321 322 324 323 324 325 324 326 328 331 332 336 338 339 341 342 342 342 343 343
315 315 314 314 314 312 311 309 310 311 311 309 310 311 309 308 308 313 313 313 312 314 312 314 315 317 317 320 321 318 325 326 326 325 323 322 323 324 321 322 323 323 324 330 331 330 331 334 337 338 339 342 344 344
313 313 312 311 311 311 309 310 310 310 308 307 307 307 307 309 311 314 317 317 317 319 318 319 319 317 319 319 320 320 326 327 330 325 325 323 323 321 322 322 322 323 323 327 330 330 329 328 334 335 335 335 338 339
310 309 308 308 309 308 309 310 310 308 306 306 306 308 309 310 314 317 320 319 317 317 317 318 320 320 319 321 322 322 325 326 327 329 326 326 336 332 329 323 321 324 323 330 332 334 334 330 329 328 329 333 334 336
306 306 306 306 308 309 310 310 308 308 306 308 310 313 314 316 317 318 318 318 317 316 315 318 320 322 321 323 324 325 323 325 329 333 330 332 329 331 334 329 325 325 328 332 334 335 335 332 333 332 332 335 336 337
305 305 306 308 309 310 309 309 308 309 308 309 309 313 313 314 314 313 315 316 315 314 315 319 321 320 321 321 324 325 326 328 329 331 331 327 328 330 333 331 329 329 332 334 334 334 334 333 333 333 333 333 334 335
305 307 308 309 309 309 309 308 307 306 307 308 308 310 310 312 315 312 314 315 314 313 315 318 321 322 322 323 324 326 325 331 330 327 325 328 330 330 332 333 334 334 334 333 333 332 332 331 330 329 330 330 332 333
306 308 309 308 309 308 306 306 306 307 308 309 309 309 309 309 312 312 314 313 313 314 316 317 319 319 319 325 325 326 328 327 325 326 328 330 330 330 331 331 331 330 330 330 329 327 325 326 326 327 327 325 323 323
307 308 308 308 307 306 306 305 307 309 309 309 310 310 310 310 310 310 311 312 313 315 315 317 315 319 321 321 324 324 324 323 325 326 327 327 327 327 327 327 328 328 328 327 326 326 326 326 325 326 326 326 325 325
308 308 308 307 306 306 307 307 307 309 309 310 310 310 311 311 311 311 311 312 313 314 313 316 318 321 323 323 324 322 320 320 323 326 325 327 327 326 326 326 324 325 327 328 327 326 326 325 325 324 323 323 323 324
308 307 306 307 306 306 308 308 308 309 310 310 310 310 310 310 312 312 312 312 313 315 316 319 320 321 323 322 322 321 319 319 325 326 326 325 325 325 325 325 326 324 327 326 325 324 325 325 324 322 322 323 323 323
307 306 306 306 306 305 306 308 308 309 309 310 309 308 310 312 314 313 313 313 314 315 317 317 318 319 318 317 317 318 318 319 318 322 324 326 324 324 325 326 326 325 325 325 325 324 325 324 324 323 321 323 323 322
306 306 306 305 306 307 306 307 308 308 309 310 310 310 312 313 313 315 313 315 315 315 317 318 317 317 315 316 317 318 317 318 318 319 321 324 325 325 325 325 324 324 324 324 323 323 324 323 324 324 323 322 322 323
305 304 305 305 307 307 307 307 308 309 310 312 312 313 314 316 316 315 315 316 317 318 320 319 319 318 318 319 318 316 320 317 318 318 320 323 324 326 325 324 326 325 324 324 324 324 325 325 323 323 322 321 322 322
305 306 307 307 307 308 308 309 309 309 311 312 313 315 316 317 317 317 318 316 315 317 316 316 317 317 318 319 320 320 320 320 316 317 318 321 323 323 324 325 326 326 325 326 325 325 326 326 325 324 322 322 323 323
306 306 306 303 307 308 309 310 311 312 314 314 315 317 316 316 318 318 318 317 315 315 316 317 317 317 318 319 319 319 318 320 322 321 319 318 321 322 323 322 323 323 324 324 325 325 326 325 324 324 322 322 322 322
307 306 306 308 308 308 310 312 312 312 313 314 314 314 314 317 319 319 319 318 318 316 315 316 317 318 318 320 321 320 319 320 319 320 321 321 321 321 321 321 321 321 322 323 324 325 326 325 324 324 322 321 321 322
308 307 307 306 308 309 311 311 311 312 313 313 313 314 315 317 319 320 316 314 316 316 316 317 319 320 320 321 321 321 319 319 319 319 320 320 320 320 320 321 322 321 321 322 324 325 326 326 325 324 323 322 321 319
307 307 309 309 310 310 310 311 311 312 313 312 313 315 315 317 317 314 314 314 316 318 320 320 320 321 321 321 320 319 319 319 318 317 318 318 319 319 318 318 319 321 322 322 323 324 325 325 325 324 324 324 324 324
307 308 308 309 309 310 310 311 311 311 311 310 311 311 311 311 313 314 317 318 319 320 320 320 322 322 320 320 320 320 319 317 317 318 319 319 319 320 319 319 320 322 322 322 321 321 325 324 324 324 324 324 324 324
308 307 308 309 310 312 311 310 310 309 309 309 309 309 310 312 317 318 318 319 319 320 320 321 321 322 320 320 321 320 321 320 320 319 321 321 321 322 323 323 324 324 323 322 322 322 321 322 322 322 322 322 323 324
307 308 309 309 310 311 311 311 311 311 311 311 313 312 314 316 317 317 317 316 317 318 319 322 322 321 320 319 320 321 322 321 321 321 321 321 321 323 324 322 322 322 325 323 323 323 323 323 323 324 323 323 322 321
308 308 310 313 314 313 313 314 315 315 318 319 319 318 318 317 319 319 318 319 319 320 320 321 322 322 321 321 321 321 321 321 322 322 322 320 321 323 324 324 324 324 324 324 320 321 321 321 321 322 323 324 322 321
311 311 312 312 314 316 316 317 319 319 319 318 318 319 319 318 318 317 318 319 319 320 320 322 322 321 322 322 322 323 323 323 321 321 320 320 320 321 322 324 324 324 324 324 323 323 324 324 324 325 325 325 326 326
Wind_Speed
21 23 22 23 21 19 19 19 20 20 19 19 19 18 18 18 15 13 10 14 7 8 26 21 18 20 20 17 9 9 9 4 4 5 8 9 8 9 14 17 20 16 13 12 13 13 13 11 9 10 5 5 2 4
22 24 23 21 21 20 20 19 19 19 19 19 19 19 18 17 17 13 14 10 15 17 26 32 34 35 31 27 17 9 10 6 4 4 3 5 7 4 11 12 3 13 14 11 9 11 5 2 2 2 5 5 4 6
22 20 22 23 21 20 20 19 18 18 19 20 20 19 19 17 17 17 18 15 18 19 28 15 13 9 16 27 31 19 12 9 5 3 5 3 5 4 8 14 10 7 3 7 3 8 4 3 5 7 7 8 6 6
23 19 20 21 21 20 21 21 19 19 20 21 21 20 18 18 19 18 20 21 17 11 5 6 7 6 8 13 20 33 22 2 5 8 9 6 5 1 4 6 8 2 9 6 6 4 6 11 12 8 9 8 6 9
22 22 20 19 19 20 19 19 19 20 20 21 22 20 22 22 21 23 25 24 20 16 4 15 31 2 6 13 20 22 29 25 15 8 6 7 8 5 5 4 8 5 6 7 7 2 6 11 9 8 9 10 11 16
21 20 19 19 19 18 18 19 20 21 19 22 23 23 23 22 22 16 7 4 6 14 4 4 9 8 5 6 14 19 21 20 17 8 7 10 14 5 4 7 5 8 5 8 5 5 6 9 7 7 10 14 16 17
19 19 19 19 20 19 18 18 19 21 21 22 23 23 24 23 21 12 6 3 2 11 4 5 5 4 2 6 7 10 15 14 12 13 11 15 9 5 7 8 3 5 5 7 8 6 4 7 5 10 17 18 20 19
21 21 20 19 17 17 19 20 22 22 22 21 23 26 25 21 13 12 13 19 10 6 4 3 5 6 2 7 5 8 11 14 12 12 11 11 13 8 5 10 5 2 2 2 6 10 5 9 14 15 18 20 22 22
23 20 20 20 18 19 18 20 21 21 20 20 24 22 11 2 4 3 3 3 14 8 4 4 3 3 2 2 2 4 9 6 8 7 10 10 11 10 9 9 3 5 4 4 8 13 13 13 14 15 16 15 17 18
22 20 20 21 19 20 20 21 22 19 19 21 16 3 3 2 2 8 5 6 12 8 7 4 6 7 7 2 2 1 4 6 5 9 11 12 13 22 21 11 3 4 8 9 11 17 15 17 15 14 14 12 14 15
22 22 22 21 22 21 21 19 16 16 16 7 4 3 6 8 6 4 5 7 8 4 8 7 14 10 6 6 3 4 3 4 5 6 7 9 12 18 25 21 16 9 6 10 7 9 7 9 15 14 14 12 13 14
23 21 21 23 24 23 16 10 12 11 8 8 11 14 9 2 5 5 4 4 5 2 1 3 5 9 6 8 4 3 4 1 5 3 5 8 9 19 23 26 24 16 6 4 1 8 13 4 13 13 14 15 12 13
24 21 24 22 17 11 8 9 9 6 13 6 1 3 3 3 3 4 2 2 4 1 3 6 3 5 9 10 4 3 3 4 4 4 5 2 9 2 10 16 20 13 10 8 12 12 16 18 12 11 12 10 10 11
17 18 17 10 8 5 8 7 4 7 4 3 3 3 4 4 3 3 4 2 5 7 16 16 5 3 2 2 3 4 4 4 3 6 4 5 10 8 4 11 18 16 16 14 17 17 17 17 15 13 12 12 12 13
13 10 6 4 2 0 2 3 5 6 3 3 3 4 4 4 2 2 7 7 8 13 15 10 5 3 1 2 3 2 3 3 4 2 4 12 9 3 4 12 18 22 22 21 19 18 19 18 17 17 14 13 13 14
4 2 2 2 1 4 5 7 7 4 3 3 4 6 8 9 3 7 8 10 9 18 14 4 2 3 2 2 3 4 3 1 3 4 12 6 5 9 14 18 20 22 23 23 21 19 18 17 16 15 13 12 11 11
3 4 3 4 5 7 8 5 3 4 4 4 5 8 11 12 10 9 7 8 11 8 3 3 2 2 4 3 3 2 2 4 7 7 6 12 16 18 20 22 23 24 23 21 20 19 17 15 13 12 11 8 7 7
5 4 4 5 6 5 3 3 3 4 6 8 5 6 7 10 12 13 8 7 9 4 5 3 4 2 3 4 3 3 5 11 8 9 10 15 16 16 19 20 19 19 20 18 17 15 13 12 11 10 11 11 10 9
5 5 5 5 4 2 2 3 3 3 6 5 9 10 11 12 13 13 12 8 6 5 6 3 3 2 2 2 6 10 16 15 6 7 7 14 12 12 13 14 16 16 16 16 14 12 11 10 12 12 11 9 8 6
3 2 1 2 2 0 2 3 3 4 4 4 9 8 9 14 10 8 7 7 6 4 4 3 0 4 2 6 7 7 14 20 7 9 6 13 13 12 12 12 8 11 12 14 15 13 11 11 10 11 10 9 8 8
1 2 2 2 2 3 2 3 4 4 6 5 6 8 7 7 7 3 3 5 6 3 2 2 3 4 4 6 7 10 10 16 19 6 6 6 11 12 11 10 10 10 10 11 10 8 8 8 10 9 9 8 7 8
2 1 1 1 0 2 3 4 5 6 5 7 7 3 3 3 5 1 1 5 1 2 3 6 5 4 5 5 5 3 9 8 12 11 8 4 5 9 11 11 12 12 11 11 10 9 8 8 9 9 9 8 7 6
1 0 0 0 1 1 3 2 3 2 3 3 5 3 3 4 3 1 3 3 4 6 5 4 4 2 3 4 5 4 3 6 10 8 9 7 5 6 7 9 10 11 11 10 8 7 6 7 9 9 9 9 7 5
1 1 1 1 2 3 2 2 2 3 4 2 2 3 3 2 1 2 2 3 9 10 11 11 10 9 6 5 4 1 2 3 5 6 5 6 4 5 5 6 7 8 6 7 8 7 5 6 11 10 9 9 7 6
1 1 2 3 3 2 2 2 2 3 2 2 3 3 3 3 1 1 1 2 3 5 9 10 8 7 7 7 5 3 3 3 7 8 9 11 3 3 2 3 3 4 6 6 7 9 6 6 8 10 11 10 9 9
2 3 2 1 1 1 2 2 3 3 3 2 1 5 4 3 3 2 1 2 2 6 12 18 16 13 11 10 9 7 7 7 8 9 8 9 9 8 7 7 7 8 7 7 8 10 11 9 9 10 11 11 11 9
2 2 2 2 2 3 3 3 2 2 2 3 3 3 3 3 2 3 2 6 11 19 16 16 16 10 10 8 7 8 8 7 9 8 8 10 12 11 10 10 9 10 9 8 9 9 11 11 11 12 13 11 12 13
1 1 1 3 3 2 3 2 1 2 3 4 6 4 7 6 3 7 14 24 21 14 8 8 6 5 5 5 6 6 6 8 10 11 9 10 11 12 12 12 11 14 12 10 9 7 7 7 8 9 11 12 12 12
2 1 2 3 3 2 2 2 1 2 3 5 4 2 3 6 19 23 20 19 14 9 2 4 4 2 4 4 5 4 4 5 7 7 8 8 9 10 11 11 10 9 9 11 14 11 8 13 12 9 6 4 3 5
1 1 1 2 2 1 2 2 1 2 5 5 3 7 13 12 15 17 17 12 10 10 6 5 3 5 5 5 4 2 1 4 7 7 4 4 3 3 5 8 8 8 8 11 11 9 10 16 17 14 12 9 4 2
2 2 2 3 3 2 3 7 8 12 11 4 5 7 6 5 8 14 19 17 14 12 10 7 7 7 8 7 7 5 4 2 3 6 6 3 1 1 0 3 4 5 4 8 10 9 7 8 10 12 10 10 14 18
2 2 2 2 1 3 3 2 1 2 2 2 4 3 3 4 8 15 23 24 23 21 16 12 8 11 13 10 5 3 3 2 3 1 3 4 2 1 1 1 1 2 3 5 8 10 8 8 4 9 9 8 8 13
2 2 2 3 3 3 4 3 2 4 11 14 14 13 10 10 7 16 20 19 21 19 17 16 15 15 13 11 9 6 8 7 5 7 7 5 4 3 2 1 1 2 4 5 6 6 6 7 8 8 8 7 7 7
Wind_Direction
309 305 305 309 310 306 309 314 320 321 319 322 324 325 326 323 320 324 298 285 269 258 290 282 268 262 261 259 271 318 293 187 226 249 240 230 255 229 242 217 196 199 200 213 235 229 234 130 141 217 355 42 17 232
307 305 307 303 303 302 306 311 317 320 320 321 321 320 318 317 311 309 300 285 281 260 267 283 274 259 252 248 278 268 285 298 293 267 250 308 242 254 247 211 206 227 210 230 227 217 111 264 5 5 325 322 318 245
311 315 311 304 300 299 299 306 310 314 316 314 316 317 316 313 307 298 291 293 286 284 295 278 283 288 257 237 232 244 255 231 233 289 312 280 270 305 245 241 200 197 263 241 178 200 229 258 259 265 283 281 284 237
316 307 311 308 306 303 300 306 309 309 310 310 314 313 314 312 305 296 282 288 274 271 283 296 338 331 262 251 230 220 225 249 262 274 273 273 278 75 290 321 269 335 161 187 216 273 284 282 273 279 266 250 223 192
314 314 311 311 309 305 307 307 305 306 307 306 312 312 308 309 307 299 295 282 256 225 284 293 307 280 289 228 227 220 225 238 258 274 233 252 272 287 229 275 254 195 190 215 236 306 272 279 294 279 239 208 179 169
312 313 313 311 311 308 311 314 311 309 311 309 309 308 307 304 305 308 307 256 249 214 257 285 309 296 273 240 213 214 218 222 223 225 245 255 259 272 272 255 246 230 235 273 283 331 291 280 259 239 199 168 154 161
315 314 314 315 314 308 301 303 305 306 311 310 309 302 304 301 291 245 251 234 254 178 237 276 280 198 247 144 163 185 194 202 209 221 230 251 244 231 263 259 249 269 280 268 255 242 228 194 176 156 154 144 135 137
317 316 312 310 307 304 301 301 302 310 311 313 308 306 304 302 275 254 250 243 222 206 227 269 272 252 203 216 154 173 178 198 206 230 236 228 235 225 257 233 268 269 253 205 197 193 205 153 139 133 135 133 129 133
303 304 306 308 306 306 304 298 301 312 314 315 310 308 307 238 213 245 113 184 228 222 270 242 267 330 92 44 122 195 199 202 204 221 229 218 215 222 223 240 275 193 133 94 160 156 141 137 133 131 129 129 131 137
300 298 299 305 305 304 305 304 308 312 317 316 317 304 261 231 244 304 245 200 202 219 227 249 251 255 309 251 178 255 209 249 204 215 220 222 235 224 234 230 221 235 237 197 128 124 134 124 122 128 121 127 139 141
295 294 298 299 298 302 303 301 304 315 322 339 302 267 279 276 299 237 236 201 184 221 211 238 235 242 249 233 213 207 248 274 245 179 206 214 221 221 228 239 239 234 242 220 259 163 83 114 122 117 111 118 128 135
294 293 296 295 295 295 297 297 301 307 320 298 284 276 291 253 211 234 223 198 208 265 264 244 234 219 230 188 184 199 245 221 248 131 220 238 228 224 220 228 233 234 231 221 129 166 153 133 124 146 124 112 123 125
289 293 290 294 293 293 281 286 283 300 327 325 271 258 239 234 241 245 259 94 322 281 258 264 296 262 203 209 197 196 258 240 337 258 216 212 48 196 219 221 216 212 190 152 134 134 139 145 133 109 107 103 109 120
288 289 298 303 300 279 273 267 252 331 344 271 271 254 235 201 227 358 332 302 303 309 327 312 262 290 64 197 210 218 202 287 230 214 201 15 335 310 240 192 187 181 163 146 144 149 133 125 120 114 112 108 111 115
291 298 309 292 294 262 261 254 299 313 267 255 262 254 243 323 204 300 304 315 322 323 317 301 255 246 163 271 269 298 226 215 251 306 341 325 310 305 143 160 165 157 151 149 137 128 118 118 115 109 104 106 108 115
299 293 202 205 247 289 287 288 302 287 238 234 234 255 255 271 302 332 318 324 337 337 334 257 309 290 225 224 236 216 227 343 13 321 312 318 81 115 117 125 129 132 132 127 123 119 114 113 115 112 107 105 110 120
197 204 184 274 280 287 297 288 246 221 236 228 232 255 271 288 293 304 310 308 331 340 333 295 349 304 294 235 216 310 19 341 311 338 71 77 91 97 104 109 112 112 110 111 111 112 113 113 113 111 111 113 121 136
219 216 254 284 304 311 279 212 244 239 238 236 249 268 247 260 281 286 285 303 315 317 314 2 298 266 306 346 324 351 345 338 29 94 106 106 95 97 97 93 95 101 105 104 106 106 105 107 106 109 113 111 106 104
217 247 269 286 288 297 250 236 228 265 255 258 254 260 267 283 281 276 273 269 275 274 298 270 257 266 287 332 25 40 19 5 329 107 104 133 134 118 112 111 108 105 104 106 105 106 107 111 118 120 118 113 105 95
233 237 248 301 303 247 256 241 233 264 274 318 289 292 292 289 286 281 258 242 243 238 230 236 5 338 25 38 38 43 24 23 81 118 112 114 141 138 122 90 104 120 112 111 100 103 111 121 125 127 128 117 98 83
264 231 276 305 301 215 258 280 246 261 300 285 305 305 292 294 265 247 208 192 213 241 261 298 359 23 71 45 25 26 24 23 35 33 25 89 128 126 135 143 128 120 118 123 147 142 139 152 155 150 142 130 110 92
192 231 235 309 217 248 259 251 274 298 274 291 316 282 271 328 300 329 160 214 222 312 319 321 315 291 283 305 328 324 11 335 6 29 40 69 141 157 154 144 144 142 144 145 142 139 136 145 155 164 162 156 133 117
168 125 281 170 275 257 265 279 268 280 282 296 294 300 260 198 252 184 193 25 341 317 336 19 346 338 285 294 281 237 229 318 345 20 32 52 74 93 140 157 155 156 157 164 165 165 159 168 165 166 172 172 168 163
42 110 276 261 233 276 284 255 252 263 257 259 276 282 279 335 89 260 64 60 39 51 37 27 15 8 8 5 12 11 215 226 308 328 347 31 80 78 92 124 154 171 180 175 190 191 203 204 196 186 188 186 189 189
287 159 221 259 230 260 276 307 260 259 295 335 317 304 360 323 255 87 143 198 116 30 9 355 344 325 310 309 299 263 253 228 231 243 245 262 282 244 212 192 183 191 204 213 213 210 205 184 184 194 195 195 193 188
260 173 208 53 83 257 279 297 349 346 320 316 322 317 309 294 253 160 137 146 330 324 321 325 319 307 295 278 276 244 240 245 235 234 222 222 238 242 242 241 238 234 235 226 228 216 210 202 197 194 192 199 202 201
248 158 166 215 294 280 265 274 306 285 306 341 348 329 310 287 322 64 38 351 338 331 326 311 315 291 283 291 277 265 260 248 228 225 237 237 237 237 239 244 245 241 231 223 222 221 218 215 214 211 206 204 207 207
280 279 187 162 246 252 300 303 299 346 8 350 333 355 344 348 320 306 307 312 320 330 319 311 304 302 291 291 272 255 245 232 226 239 255 248 241 238 239 240 242 237 228 220 218 220 219 204 205 198 201 212 213 232
229 194 277 274 255 230 251 265 309 51 28 353 360 306 271 258 288 306 331 339 8 20 0 357 359 276 316 323 299 270 262 239 227 228 241 245 224 231 232 225 230 230 225 219 216 208 212 188 170 169 163 168 208 236
31 51 256 244 257 219 96 258 293 304 284 279 259 275 284 309 4 26 28 32 28 23 357 340 358 339 357 2 11 332 265 244 234 229 266 204 203 200 217 202 198 199 206 199 203 216 222 213 210 220 244 261 231 224
258 258 231 241 255 237 237 254 269 271 284 287 261 243 262 311 350 16 15 13 12 15 14 3 356 323 330 10 13 28 44 57 211 223 225 217 226 257 56 193 182 183 175 185 191 201 211 211 224 229 241 244 234 222
211 247 289 301 360 333 339 15 230 197 211 200 181 221 344 356 30 14 17 20 22 23 21 21 13 353 354 16 34 16 360 339 338 178 197 193 196 198 79 101 186 177 181 185 207 226 240 230 242 226 250 255 246 235
199 234 273 308 334 2 352 327 221 96 80 70 56 48 61 60 44 14 26 29 25 23 26 26 33 42 42 45 48 42 41 47 86 130 144 150 166 157 72 48 257 239 234 231 230 234 242 245 234 237 244 248 240 235